Terug naar catalogus

STARLINK-34009

ActiefCommunicatieVLEO
NORAD 63849·PAYLOAD·🇺🇸 United States

Gelanceerd May 7, 2025 vanaf Cape Canaveral Space Force Station

Loading…

Volgende Passages (komende 24 uur)

TLE

VersSource: CelesTrak SupGP

Epoch: Sep 15, 2026, 03:11 UTC

1 63849C 25093P   26258.13312500 -.00013043  00000+0 -47229-3 0  2584
2 63849  42.9997  84.7945 0001460 270.1034  43.4709 15.27592564    11

Volg STARLINK-34009 in realtime met AllMySat

Download on the App Store